Hourly Data Report for October 30, 2013

All times are specified in Local Standard Time (LST). Add 1 hour to adjust for Daylight Saving Time where and when it is observed.

PENTICTON A
BRITISH COLUMBIA

49°27'45.000" N
119°36'08.000" W
344.40 m
1126146
71889
YYF

Download Data

Hourly Data (October 2013)
Hourly Data Report for October 30, 2013
Temp Definition
°C
Dew Point Temp Definition
°C
Rel Hum Definition
%
Wind Dir Definition
10's deg

Wind Spd Definition
km/h
Visibility Definition
km
Stn Press Definition
kPa
Hmdx Definition


Wind Chill Definition


Weather Definition


TIME
00:00 Legend Double Dagger -2.3 -3.7 90 8 2 24.1 97.52   -3 LegendNANA
01:00 Legend Double Dagger -3.0 -4.9 87 3 5 24.1 97.56   -5 Clear
02:00 Legend Double Dagger -1.9 -3.8 87 11 1 24.1 97.60   -2 LegendNANA
03:00 Legend Double Dagger -2.9 -4.8 87 35 3 24.1 97.61   -4 LegendNANA
04:00 Legend Double Dagger -2.0 -3.4 90 9 3 24.1 97.65   -3 Mostly Cloudy
05:00 Legend Double Dagger -2.5 -4.1 89 34 4 24.1 97.65   -4 LegendNANA
06:00 Legend Double Dagger -0.9 -2.8 87 26 3 24.1 97.62   -2 LegendNANA
07:00 Legend Double Dagger 2.1 -1.3 78 13 1 24.1 97.64     Mostly Cloudy
08:00 Legend Double Dagger 2.8 -0.3 80 14 4 24.1 97.69     LegendNANA
09:00 Legend Double Dagger 4.0 0.0 75 16 13 24.1 97.71     LegendNANA
10:00 Legend Double Dagger 5.9 -0.6 63 16 15 24.1 97.69     Mostly Cloudy
11:00 Legend Double Dagger 7.6 -1.6 52 15 17 24.1 97.68     LegendNANA
12:00 Legend Double Dagger 7.2 -2.3 51 17 18 24.1 97.65     LegendNANA
13:00 Legend Double Dagger 7.9 -1.9 50 17 19 24.1 97.61     Mostly Cloudy
14:00 Legend Double Dagger 8.6 -2.7 45 15 22 24.1 97.60     LegendNANA
15:00 Legend Double Dagger 8.4 -2.2 47 17 23 24.1 97.57     LegendNANA
16:00 Legend Double Dagger 8.1 -2.0 49 17 22 24.1 97.56     Mainly Clear
17:00 Legend Double Dagger 8.3 -2.3 47 18 23 24.1 97.54     LegendNANA
18:00 Legend Double Dagger 8.5 -2.2 47 17 20 24.1 97.60     LegendNANA
19:00 Legend Double Dagger 8.4 -1.4 50 18 28 24.1 97.54     Mostly Cloudy
20:00 Legend Double Dagger 8.2 -1.9 49 16 26 24.1 97.52     LegendNANA
21:00 Legend Double Dagger 8.1 -2.2 48 17 25 24.1 97.53     LegendNANA
22:00 Legend Double Dagger 8.1 -2.2 48 17 22 24.1 97.53     Mostly Cloudy
23:00 Legend Double Dagger 8.0 -1.8 50 15 24 24.1 97.55     LegendNANA

Notes on Data Quality.

Legend

  • E = Estimated
  • M = Missing
  • NA = Not Available
  • ‡ = Partner data that is not subject to review by the National Climate Archives
Date modified: